Regional Weather Roundup
Issued by NWS

Home | Current Version | Previous Version | Text Only | Print | Product List | Glossary Off
Versions: 1 2 3 4 5 6 7 8 9 10 11 12 13 14 15 16 17 18 19 20 21 22 23 24 25 26 27 28 29 30 31 32 33 34 35 36 37 38 39 40 41 42 43 44 45 46 47 48 49 50

000
ASUS43 KIND 281459
RWRIN

WEATHER ROUNDUP FOR INDIANA
NATIONAL WEATHER SERVICE INDIANAPOLIS IN
1000 AM EST FRI NOV 28 2014

NOTE: "FAIR" INDICATES FEW OR NO CLOUDS BELOW 12,000 FEET WITH NO
SIGNIFICANT WEATHER AND/OR OBSTRUCTIONS TO VISIBILITY.

* - STATION DOES NOT REPORT WEATHER SUCH AS PRECIPITATION OR FOG.

+ - STATION NOT QUALITY CONTROLLED BY THE NATIONAL WEATHER SERVICE.
    USE DATA WITH CAUTION...ESPECIALLY DEWPOINT AND RELATIVE
    HUMIDITY OBSERVATIONS.

INZ001>003-010>013-019-020-281600-
NORTHWEST INDIANA

CITY           SKY/WX    TMP DP  RH WIND       PRES   REMARKS
GARY /AIRPORT/ PTSUNNY   25  16  68 S6        30.29F WCI  18
VALPARAISO     NOT AVBL

$$

LMZ046-743>745-281600-
SOUTHERN LAKE MICHIGAN

STATION/POSITION TIME  TEMP WIND        PRES
                       AIR  DIR/SP/G
                 (UTC) (F)  (DEG/KT/KT) (MB)
MICHIGAN CITY    1400   22  150/  8/ 11   N/A

$$

INZ004-005-014>016-021>024-281600-
NORTH CENTRAL INDIANA

CITY           SKY/WX    TMP DP  RH WIND       PRES   REMARKS
GOSHEN         CLOUDY    22  15  75 S9        30.30F WCI  12
SOUTH BEND     CLOUDY    22  15  75 SW12      30.31R WCI  10

$$

INZ006>009-017-018-025>027-281600-
NORTHEAST INDIANA

CITY           SKY/WX    TMP DP  RH WIND       PRES   REMARKS
ANGOLA *+      PTSUNNY   19  16  86 S6        30.29S WCI  11
FORT WAYNE     CLOUDY    24  16  71 S8        30.33F WCI  15

$$

INZ028-029-035-036-043>045-051>053-281600-
WEST CENTRAL INDIANA

CITY           SKY/WX    TMP DP  RH WIND       PRES   REMARKS
GREENCASTLE +  CLOUDY    23  19  86 S6        30.34S WCI  16
LAFAYETTE      PTSUNNY   23  15  71 S12       30.33S WCI  12
TERRE HAUTE    CLOUDY    25  19  78 S8        30.35F WCI  16

$$

INZ030>032-037>040-046>048-054>057-064-065-281600-
CENTRAL INDIANA

CITY           SKY/WX    TMP DP  RH WIND       PRES   REMARKS
ANDERSON       CLOUDY    25  19  80 S12       30.35S WCI  14
INDIANAPOLIS   CLOUDY    24  16  71 S8        30.33F WCI  15
-EAGLE CREEK   CLOUDY    23  16  74 S7        30.34S WCI  15
KOKOMO *+      CLOUDY    25  18  74 S12       30.32F WCI  14
MT COMFORT *+  PTSUNNY   25  14  63 S9        30.34S WCI  15
SHELBYVILLE    CLOUDY    27  18  69 S12       30.35F WCI  17

$$

INZ033-034-041-042-049-050-058-059-281600-
EAST CENTRAL INDIANA

CITY           SKY/WX    TMP DP  RH WIND       PRES   REMARKS
MUNCIE         CLOUDY    24  18  77 S8        30.33S WCI  15

$$

INZ060-061-067>069-081>083-085>088-281600-
SOUTHWEST INDIANA

CITY           SKY/WX    TMP DP  RH WIND       PRES   REMARKS
EVANSVILLE     SUNNY     32  23  69 S10       30.38F WCI  24
HUNTINGBURG *+ MOSUNNY   28  21  74 S8        30.38F WCI  20

$$

INZ062-063-066-070>080-084-089>092-281600-
SOUTH CENTRAL AND SOUTHEAST INDIANA

CITY           SKY/WX    TMP DP  RH WIND       PRES   REMARKS
BLOOMINGTON    CLOUDY    25  19  78 S5        30.35S WCI  19

$$



USA.gov is the U.S. government's official web portal to all federal, state and local government web resources and services.